Powrót do katalogu

DELTA 1 DEB

AktywnyPO
NORAD 42569·DEBRIS·🇺🇸 United States

Wystrzelony Jul 23, 1972 z Vandenberg Space Force Base

Loading…

Następne Przeloty (najbliższe 24 godziny)

TLE

ŚwieżeSource: Space-Track

Epoka: Sep 13, 2026, 18:11 UTC

1 42569U 72058KC  26256.75818532  .00002800  00000-0  32902-2 0  9996
2 42569  98.8961   6.0218 0347209 163.5079 197.7695 13.46063679613629

Śledź DELTA 1 DEB w czasie rzeczywistym z AllMySat

Download on the App Store